Location: Raleigh
(35.7720°N, 78.6390°W)
Time: 16:41:05
(UTC-04:00)

Amateur Radio Satellites - All Passes

Search period start: 25 June 2017 16:11
Search period end: 26 June 2017 16:11
Location: Raleigh, 35.7720°N, 78.6390°W

Satellite Date Start Highest point End Downlink Frequencies (MHz)
Time Altitude Azimuth
AO-7 25 Jun 16:15:44 16:24:00 71° 255° (WSW) 16:32:21 .
MOZHAYETS 4 25 Jun 16:28:51 16:33:25 65° 101° (E) 16:37:56
Tancredo 1 25 Jun 16:32:26 16:34:53 22° 229° (SW) 16:37:18 437.200
ITUPSAT 1 25 Jun 16:47:08 16:51:48 53° 287° (WNW) 16:56:26 437.325
ISS 25 Jun 16:49:42 16:52:46 36° 227° (SW) 16:55:48 437.550
BEESAT 25 Jun 16:57:22 17:01:50 40° 288° (WNW) 17:06:16 436.000
CUBESAT XI-V 25 Jun 17:09:51 17:13:54 30° 97° (E) 17:17:56 437.345
DOVE 4 25 Jun 17:18:31 17:21:33 20° 69° (ENE) 17:24:38 437.250
XW-2C 25 Jun 17:38:36 17:40:33 14° 68° (ENE) 17:42:30 145.795 - 145.815
SRMSAT 25 Jun 17:50:00 17:53:39 17° 178° (S) 17:57:16 437.500
KAITUO 1B 25 Jun 17:52:36 17:54:49 15° 69° (ENE) 17:57:02 145.475/437.950
JUGNU 25 Jun 17:55:31 17:57:08 11° 194° (SSW) 17:58:46 437.505
KKS-1 25 Jun 18:02:59 18:07:28 80° 101° (E) 18:11:57 437.445
MOZHAYETS 4 25 Jun 18:08:41 18:09:57 11° 296° (WNW) 18:11:14
HO-68 25 Jun 18:25:19 18:30:26 21° 60° (ENE) 18:35:32 435.675
NUDT-PHONESAT 25 Jun 18:26:52 18:30:24 40° 74° (ENE) 18:33:56 437.300
STARS 25 Jun 18:32:50 18:37:16 71° 102° (ESE) 18:41:40 437.465
CUTE-I 25 Jun 18:39:36 18:44:53 72° 75° (ENE) 18:50:13 437.470
XW-2F 25 Jun 18:42:02 18:45:51 87° 80° (E) 18:49:42 145.980 - 146.000
XW-2D 25 Jun 18:46:01 18:49:51 75° 259° (WSW) 18:53:41 145.860 - 145.880
CUBESAT XI-V 25 Jun 18:47:32 18:51:04 22° 291° (WNW) 18:54:35 437.345
LilacSat-2 25 Jun 18:54:20 18:58:08 55° 260° (W) 19:01:57 437.200
XW-2B 25 Jun 18:55:04 18:58:51 59° 260° (W) 19:02:39 145.730 - 145.750
DOVE 4 25 Jun 18:55:33 18:59:04 27° 264° (W) 19:02:40 437.250
XW-2C 25 Jun 19:10:51 19:14:23 35° 262° (W) 19:17:56 145.795 - 145.815
XW-2A 25 Jun 19:17:42 19:20:10 19° 71° (ENE) 19:22:39 145.665 - 145.685
STRAND 1 25 Jun 19:22:58 19:24:49 12° 91° (E) 19:26:40 437.568
KAITUO 1B 25 Jun 19:25:11 19:28:32 30° 262° (W) 19:31:54 145.475/437.950
SEEDS 25 Jun 19:27:50 19:31:17 25° 71° (ENE) 19:34:45 437.485
SRMSAT 25 Jun 19:38:57 19:42:03 14° 188° (S) 19:45:07 437.500
CUTE 1.7 + AOD 2 25 Jun 19:44:28 19:48:42 68° 75° (ENE) 19:52:55 437.475
AO-73 25 Jun 19:52:17 19:53:57 12° 65° (ENE) 19:55:36 145.935
CUBEBUG 2 25 Jun 19:55:55 20:00:15 45° 73° (ENE) 20:04:43 437.445
NUDT-PHONESAT 25 Jun 20:03:36 20:04:27 11° 268° (W) 20:05:18 437.300
HO-68 25 Jun 20:10:18 20:17:27 69° 257° (WSW) 20:24:39 435.675
AAUSAT CUBESAT 2 25 Jun 20:18:06 20:22:01 44° 74° (ENE) 20:25:57 437.432
Oscar 11 25 Jun 20:18:11 20:20:58 17° 68° (ENE) 20:23:46 .
CUTE-I 25 Jun 20:23:35 20:25:23 12° 269° (W) 20:27:13 437.470
ZACube-1 25 Jun 20:24:43 20:28:40 30° 71° (ENE) 20:32:41 437.345
UWE-3 25 Jun 20:29:18 20:33:48 63° 75° (ENE) 20:38:25 435.000/436.395/437.385
XW-2A 25 Jun 20:50:15 20:52:46 19° 265° (W) 20:55:17 145.665 - 145.685
STRAND 1 25 Jun 20:59:17 21:04:24 67° 286° (WNW) 21:09:30 437.568
RS-15 25 Jun 21:03:00 21:14:46 63° 112° (ESE) 21:26:51 29.354- 29.394
SEEDS 25 Jun 21:03:37 21:06:53 22° 265° (W) 21:10:09 437.485
NO-84 25 Jun 21:09:16 21:12:21 24° 123° (ESE) 21:15:38 435.350 FM
BEESAT 3 25 Jun 21:12:54 21:16:48 68° 117° (ESE) 21:20:47 437.485
AO-85 25 Jun 21:17:08 21:21:11 56° 301° (WNW) 21:25:05 145.980
AO-73 25 Jun 21:25:07 21:29:34 61° 259° (W) 21:34:07 145.935
YUBILEINY 25 Jun 21:25:30 21:32:28 27° 83° (E) 21:39:26 435.215
FO-29 25 Jun 21:32:35 21:37:25 17° 89° (E) 21:42:10 435.910
CUBEBUG 2 25 Jun 21:34:27 21:37:04 15° 268° (W) 21:39:43 437.445
DELFI C3 25 Jun 21:43:52 21:47:29 37° 74° (ENE) 21:51:07 145.870
M-CUBED/EXP-1 PRIME 25 Jun 21:47:59 21:48:38 10° 99° (E) 21:49:16 437.505
Oscar 11 25 Jun 21:52:46 21:56:47 36° 262° (W) 22:00:49 .
PCSat 25 Jun 21:55:54 22:01:18 63° 62° (ENE) 22:06:39 145.827
AAUSAT CUBESAT 2 25 Jun 21:56:07 21:57:40 12° 268° (W) 21:59:13 437.432
ZACube-1 25 Jun 22:01:25 22:04:55 22° 266° (W) 22:08:28 437.345
PRISM 25 Jun 22:05:55 22:07:16 11° 93° (E) 22:08:37 437.425
UWE-3 25 Jun 22:09:49 22:10:38 10° 270° (W) 22:11:27 435.000/436.395/437.385
BEESAT 2 25 Jun 22:12:08 22:16:05 76° 300° (WNW) 22:20:07 435.950
TIGRISAT 25 Jun 22:15:29 22:18:22 16° 93° (E) 22:21:11 435.000
O/OREOS (USA 219) 25 Jun 22:16:38 22:21:09 67° 291° (WNW) 22:25:41 437.305
SO-50 25 Jun 22:36:43 22:38:57 13° 46° (NE) 22:41:11 436.795
EO-88 25 Jun 22:40:08 22:43:44 55° 260° (W) 22:47:22 145.990 - 145.960
ESTCUBE 1 25 Jun 22:40:29 22:41:27 11° 64° (ENE) 22:42:26 437.505/2401.250
NO-84 25 Jun 22:46:10 22:49:44 34° 321° (NW) 22:53:34 435.350 FM
BEESAT 3 25 Jun 22:53:37 22:54:49 11° 314° (NW) 22:56:01 437.485
UNISAT 6 25 Jun 22:56:19 23:00:52 52° 100° (E) 23:05:16 437.425
LO-87 25 Jun 23:02:42 23:05:43 27° 72° (ENE) 23:08:46 145.935 - 145.965
FO-29 25 Jun 23:15:12 23:23:06 84° 285° (WNW) 23:30:48 435.910
RS-15 25 Jun 23:16:38 23:27:51 41° 314° (NW) 23:39:20 29.354- 29.394
M-CUBED/EXP-1 PRIME 25 Jun 23:19:29 23:23:09 49° 290° (WNW) 23:27:05 437.505
YUBILEINY 25 Jun 23:20:00 23:28:36 57° 281° (W) 23:37:18 435.215
DELFI C3 25 Jun 23:20:40 23:22:23 12° 267° (W) 23:24:05 145.870
PRISM 25 Jun 23:38:48 23:42:45 46° 286° (WNW) 23:46:41 437.425
PCSat 25 Jun 23:41:13 23:44:05 15° 256° (WSW) 23:46:56 145.827
TIGRISAT 25 Jun 23:50:50 23:55:12 41° 287° (WNW) 23:59:27 435.000
QB50P2 25 Jun 23:54:41 23:56:28 12° 92° (E) 23:58:14 145.880/145.840
AIST 2D 26 Jun 00:02:56 00:06:03 30° 97° (E) 00:09:08 435.315
ESTCUBE 1 26 Jun 00:13:12 00:17:39 66° 258° (WSW) 00:22:08 437.505/2401.250
VELOX 1 26 Jun 00:14:22 00:18:02 27° 70° (ENE) 00:21:43 145.980
SO-50 26 Jun 00:15:21 00:19:52 70° 242° (WSW) 00:24:23 436.795
EO-79 26 Jun 00:17:46 00:21:04 22° 95° (E) 00:24:21 145.935-145.965
50 SAT 26 Jun 00:23:11 00:24:02 11° 68° (ENE) 00:24:53 437.505
DUCHIFAT 1 26 Jun 00:31:15 00:34:45 25° 96° (E) 00:38:13 145.980
SPROUT 26 Jun 00:32:45 00:36:49 47° 74° (ENE) 00:40:57 437.525
DX 1 26 Jun 00:34:32 00:36:51 14° 66° (ENE) 00:39:11 434.975-435.025
UNISAT 6 26 Jun 00:34:41 00:37:03 14° 295° (WNW) 00:39:23 437.425
LO-87 26 Jun 00:37:15 00:39:10 14° 266° (W) 00:41:06 145.935 - 145.965
NANOSAT C BR1 26 Jun 00:39:36 00:43:31 35° 98° (E) 00:47:25 145.865
UKube-1 26 Jun 00:51:00 00:53:22 15° 66° (ENE) 00:55:43 .
FO-29 26 Jun 01:02:26 01:06:57 17° 301° (WNW) 01:11:27 435.910
POLYITAN 1 26 Jun 01:17:22 01:21:38 70° 284° (WNW) 01:25:52 437.675
QB50P2 26 Jun 01:28:21 01:32:28 46° 286° (WNW) 01:36:31 145.880/145.840
AIST 2D 26 Jun 01:37:25 01:38:55 12° 292° (WNW) 01:40:26 435.315
RS-15 26 Jun 01:38:22 01:45:20 16° 346° (NNW) 01:52:17 29.354- 29.394
BUGSAT 1 26 Jun 01:39:35 01:43:40 44° 99° (E) 01:47:41 437.445
VELOX 1 26 Jun 01:50:59 01:54:25 22° 264° (W) 01:57:52 145.980
EO-79 26 Jun 01:53:11 01:56:45 27° 290° (WNW) 02:00:19 145.935-145.965
50 SAT 26 Jun 01:53:24 01:56:28 32° 261° (W) 01:59:32 437.505
Oscar 19 26 Jun 01:56:13 02:00:23 25° 96° (E) 02:04:33 437.125/150
DUCHIFAT 1 26 Jun 02:06:55 02:10:17 23° 290° (WNW) 02:13:38 145.980
DX 1 26 Jun 02:08:31 02:12:38 43° 261° (W) 02:16:46 434.975-435.025
SPROUT 26 Jun 02:11:16 02:12:57 12° 268° (W) 02:14:38 437.525
ITUPSAT 1 26 Jun 02:16:09 02:18:07 12° 63° (ENE) 02:20:05 437.325
NANOSAT C BR1 26 Jun 02:16:11 02:18:55 17° 293° (WNW) 02:21:38 145.865
BEESAT 26 Jun 02:24:53 02:27:45 16° 65° (ENE) 02:30:36 436.000
UKube-1 26 Jun 02:24:55 02:28:59 42° 261° (W) 02:33:05 .
Gurwin Techsat 1B 26 Jun 02:51:51 02:57:05 56° 101° (E) 03:02:17 435.225
BUGSAT 1 26 Jun 03:16:27 03:18:35 14° 294° (WNW) 03:20:42 437.445
MOZHAYETS 4 26 Jun 03:27:35 03:31:59 43° 73° (ENE) 03:36:22
Oscar 19 26 Jun 03:35:09 03:39:41 33° 290° (WNW) 03:44:12 437.125/150
NO-84 26 Jun 03:46:15 03:47:35 11° 24° (NNE) 03:48:56 435.350 FM
ITUPSAT 1 26 Jun 03:50:35 03:55:20 64° 258° (WSW) 04:00:08 437.325
RS-15 26 Jun 03:56:49 04:05:03 20° 24° (NNE) 04:13:04 29.354- 29.394
BEESAT 26 Jun 04:00:28 04:05:04 49° 260° (W) 04:09:43 436.000
CUBESAT XI-V 26 Jun 04:10:39 04:14:13 22° 69° (ENE) 04:17:47 437.345
ITAMSAT 1 26 Jun 04:13:12 04:18:06 40° 99° (E) 04:22:58 435.822/435.867
AO-7 26 Jun 04:20:42 04:28:45 48° 102° (ESE) 04:36:43 .
Gurwin Techsat 1B 26 Jun 04:33:13 04:36:31 17° 296° (WNW) 04:39:49 435.225
KKS-1 26 Jun 04:57:57 05:02:13 50° 73° (ENE) 05:06:31 437.445
MOZHAYETS 4 26 Jun 05:06:32 05:09:17 16° 267° (W) 05:12:03
NO-84 26 Jun 05:21:53 05:26:08 47° 42° (NE) 05:30:13 435.350 FM
STARS 26 Jun 05:26:25 05:30:31 42° 73° (ENE) 05:34:40 437.465
BEESAT 3 26 Jun 05:33:08 05:35:49 17° 50° (NE) 05:38:27 437.485
CUBESAT XI-V 26 Jun 05:47:17 05:51:23 31° 263° (W) 05:55:29 437.345
AO-85 26 Jun 05:50:15 05:54:17 47° 58° (ENE) 05:58:34 145.980
ITAMSAT 1 26 Jun 05:53:17 05:57:16 22° 294° (WNW) 06:01:13 435.822/435.867
RS-15 26 Jun 06:09:11 06:21:07 57° 53° (NE) 06:32:23 29.354- 29.394
AO-7 26 Jun 06:13:51 06:21:11 36° 298° (WNW) 06:28:31 .
XW-2F 26 Jun 06:19:39 06:20:20 10° 92° (E) 06:21:00 145.980 - 146.000
XW-2D 26 Jun 06:22:57 06:24:47 13° 93° (E) 06:26:36 145.860 - 145.880
LilacSat-2 26 Jun 06:31:13 06:33:49 18° 95° (E) 06:36:25 437.200
XW-2B 26 Jun 06:31:25 06:33:52 16° 94° (E) 06:36:16 145.730 - 145.750
BEESAT 2 26 Jun 06:32:46 06:36:10 25° 53° (NE) 06:39:32 435.950
STRAND 1 26 Jun 06:36:01 06:38:37 14° 63° (ENE) 06:41:13 437.568
KKS-1 26 Jun 06:37:13 06:39:01 12° 268° (W) 06:40:49 437.445
XW-2C 26 Jun 06:46:17 06:49:29 26° 96° (E) 06:52:39 145.795 - 145.815
O/OREOS (USA 219) 26 Jun 06:52:14 06:54:12 13° 57° (ENE) 06:56:10 437.305
DOVE 4 26 Jun 06:55:11 07:00:10 89° 92° (E) 07:05:23 437.250
KAITUO 1B 26 Jun 06:58:59 07:02:13 28° 97° (E) 07:05:25 145.475/437.950
CUTE-I 26 Jun 06:59:48 07:04:44 36° 98° (E) 07:09:38 437.470
NO-84 26 Jun 07:00:16 07:03:24 20° 238° (WSW) 07:06:25 435.350 FM
STARS 26 Jun 07:04:38 07:07:02 14° 267° (W) 07:09:25 437.465
BEESAT 3 26 Jun 07:09:49 07:13:32 37° 246° (WSW) 07:17:10 437.485
Tancredo 1 26 Jun 07:25:14 07:27:51 27° 132° (SE) 07:30:29 437.200
AO-85 26 Jun 07:32:06 07:34:21 14° 250° (WSW) 07:36:39 145.980
NUDT-PHONESAT 26 Jun 07:33:29 07:37:11 88° 102° (ESE) 07:40:51 437.300
CUTE 1.7 + AOD 2 26 Jun 07:33:39 07:35:53 14° 93° (E) 07:38:07 437.475
HO-68 26 Jun 07:41:56 07:47:52 28° 96° (E) 07:53:46 435.675
XW-2F 26 Jun 07:51:06 07:54:38 40° 286° (WNW) 07:58:06 145.980 - 146.000
ISS 26 Jun 07:51:28 07:54:12 25° 131° (SE) 07:56:57 437.550
CUBEBUG 2 26 Jun 07:51:39 07:53:35 12° 91° (E) 07:55:30 437.445
XW-2D 26 Jun 07:55:40 07:59:02 32° 287° (WNW) 08:02:23 145.860 - 145.880
XW-2B 26 Jun 08:04:52 08:08:01 26° 288° (WNW) 08:11:10 145.730 - 145.750
LilacSat-2 26 Jun 08:04:57 08:08:03 24° 289° (WNW) 08:11:07 437.200
BEESAT 2 26 Jun 08:10:31 08:13:48 24° 248° (WSW) 08:17:02 435.950
STRAND 1 26 Jun 08:12:07 08:17:11 64° 258° (WSW) 08:22:19 437.568
XW-2A 26 Jun 08:14:04 08:17:01 27° 97° (E) 08:19:57 145.665 - 145.685
XW-2C 26 Jun 08:21:00 08:23:26 17° 291° (WNW) 08:25:53 145.795 - 145.815
RS-15 26 Jun 08:22:25 08:33:01 40° 254° (WSW) 08:43:12 29.354- 29.394
UWE-3 26 Jun 08:23:12 08:26:02 16° 92° (E) 08:28:49 435.000/436.395/437.385
O/OREOS (USA 219) 26 Jun 08:29:34 08:33:58 56° 253° (WSW) 08:38:19 437.305
KAITUO 1B 26 Jun 08:33:47 08:35:57 15° 291° (WNW) 08:38:05 145.475/437.950
CUTE-I 26 Jun 08:40:12 08:44:33 26° 293° (WNW) 08:48:53 437.470
SEEDS 26 Jun 08:48:57 08:53:07 74° 101° (ESE) 08:57:16 437.485
Tancredo 1 26 Jun 09:00:58 09:03:25 22° 327° (NNW) 09:05:53 437.200
CUTE 1.7 + AOD 2 26 Jun 09:07:56 09:11:51 38° 287° (WNW) 09:15:45 437.475
TIGRISAT 26 Jun 09:13:03 09:14:13 11° 63° (ENE) 09:15:22 435.000
AO-73 26 Jun 09:16:23 09:20:17 31° 96° (E) 09:24:07 145.935
FO-29 26 Jun 09:24:51 09:30:05 31° 65° (ENE) 09:35:52 435.910
CUBEBUG 2 26 Jun 09:25:56 09:30:31 54° 286° (WNW) 09:34:58 437.445
ISS 26 Jun 09:27:46 09:30:36 27° 326° (NW) 09:33:29 437.550
HO-68 26 Jun 09:28:55 09:35:46 50° 291° (WNW) 09:42:34 435.675
YUBILEINY 26 Jun 09:33:36 09:42:23 64° 80° (E) 09:51:03 435.215
AAUSAT CUBESAT 2 26 Jun 09:37:57 09:42:01 63° 284° (WNW) 09:46:03 437.432
Oscar 11 26 Jun 09:42:25 09:46:35 47° 99° (E) 09:50:43 .
XW-2A 26 Jun 09:47:55 09:49:28 13° 291° (WNW) 09:51:01 145.665 - 145.685
ZACube-1 26 Jun 09:51:27 09:55:55 87° 284° (WNW) 10:00:14 437.345
UNISAT 6 26 Jun 09:52:04 09:56:08 32° 71° (ENE) 10:00:17 437.425
UWE-3 26 Jun 09:58:22 10:02:38 39° 288° (WNW) 10:06:46 435.000/436.395/437.385
M-CUBED/EXP-1 PRIME 26 Jun 10:03:17 10:06:35 60° 255° (WSW) 10:09:47 437.505
EO-88 26 Jun 10:12:54 10:14:56 14° 94° (E) 10:16:58 145.990 - 145.960
PRISM 26 Jun 10:24:39 10:28:41 80° 77° (ENE) 10:32:45 437.425
TIGRISAT 26 Jun 10:45:40 10:50:14 69° 259° (W) 10:54:53 435.000
AO-73 26 Jun 10:53:05 10:56:16 20° 292° (WNW) 10:59:24 145.935
PCSat 26 Jun 10:55:26 10:57:04 11° 102° (ESE) 10:58:43 145.827
DELFI C3 26 Jun 10:57:44 11:01:41 84° 282° (WNW) 11:05:37 145.870
EO-79 26 Jun 11:09:00 11:10:34 12° 65° (ENE) 11:12:09 145.935-145.965
FO-29 26 Jun 11:09:28 11:14:55 38° 265° (W) 11:21:03 435.910
Oscar 11 26 Jun 11:20:17 11:22:16 13° 294° (WNW) 11:24:14 .
DUCHIFAT 1 26 Jun 11:21:31 11:23:33 13° 66° (ENE) 11:25:34 145.980
UNISAT 6 26 Jun 11:29:22 11:32:50 21° 266° (W) 11:36:23 437.425
NANOSAT C BR1 26 Jun 11:29:27 11:32:25 19° 68° (ENE) 11:35:23 145.865
YUBILEINY 26 Jun 11:31:49 11:38:22 24° 278° (W) 11:44:55 435.215
EO-88 26 Jun 11:45:29 11:48:38 27° 288° (WNW) 11:51:45 145.990 - 145.960
LO-87 26 Jun 12:05:00 12:08:34 51° 100° (E) 12:12:06 145.935 - 145.965
POLYITAN 1 26 Jun 12:06:33 12:10:43 57° 74° (ENE) 12:14:56 437.675
AIST 2D 26 Jun 12:06:44 12:10:13 53° 261° (W) 12:13:43 435.315
ESTCUBE 1 26 Jun 12:08:41 12:12:40 31° 97° (E) 12:16:38 437.505/2401.250
QB50P2 26 Jun 12:17:21 12:21:36 86° 76° (ENE) 12:25:54 145.880/145.840
BUGSAT 1 26 Jun 12:26:53 12:30:01 21° 69° (ENE) 12:33:11 437.445
PCSat 26 Jun 12:34:18 12:39:43 78° 297° (WNW) 12:45:10 145.827
EO-79 26 Jun 12:41:42 12:45:50 52° 260° (W) 12:50:00 145.935-145.965
DUCHIFAT 1 26 Jun 12:54:43 12:58:46 45° 261° (W) 13:02:51 145.980
NANOSAT C BR1 26 Jun 13:04:06 13:07:51 31° 263° (W) 13:11:40 145.865
Oscar 19 26 Jun 13:10:16 13:14:37 28° 68° (ENE) 13:18:57 437.125/150
50 SAT 26 Jun 13:19:09 13:21:15 15° 95° (E) 13:23:21 437.505
VELOX 1 26 Jun 13:42:27 13:46:54 82° 103° (ESE) 13:51:20 145.980
ESTCUBE 1 26 Jun 13:45:56 13:49:14 21° 292° (WNW) 13:52:33 437.505/2401.250
Tancredo 1 26 Jun 13:52:21 13:53:50 13° 27° (NNE) 13:55:19 437.200
SPROUT 26 Jun 13:56:43 14:00:57 58° 285° (WNW) 14:05:10 437.525
DX 1 26 Jun 13:59:17 14:03:22 37° 99° (E) 14:07:24 434.975-435.025
BUGSAT 1 26 Jun 14:01:44 14:05:11 26° 264° (W) 14:08:43 437.445
JUGNU 26 Jun 14:02:00 14:05:28 16° 174° (S) 14:08:57 437.505
Gurwin Techsat 1B 26 Jun 14:09:57 14:15:12 67° 74° (ENE) 14:20:30 435.225
UKube-1 26 Jun 14:14:32 14:18:32 36° 99° (E) 14:22:31 .
ISS 26 Jun 14:21:59 14:23:48 14° 26° (NNE) 14:25:37 437.550
PCSat 26 Jun 14:22:19 14:23:59 11° 315° (NW) 14:25:41 145.827
SO-50 26 Jun 14:26:28 14:31:01 75° 119° (ESE) 14:35:33 436.795
Oscar 19 26 Jun 14:49:19 14:53:47 30° 263° (W) 14:58:17 437.125/150
50 SAT 26 Jun 14:51:17 14:53:59 22° 288° (WNW) 14:56:41 437.505
AO-7 26 Jun 15:16:21 15:24:17 52° 66° (ENE) 15:32:16 .
Tancredo 1 26 Jun 15:26:43 15:29:45 75° 223° (SW) 15:32:46 437.200
MOZHAYETS 4 26 Jun 15:27:22 15:29:16 12° 92° (E) 15:31:09
ITAMSAT 1 26 Jun 15:28:14 15:33:10 46° 71° (ENE) 15:38:08 435.822/435.867
DX 1 26 Jun 15:36:23 15:39:13 17° 293° (WNW) 15:42:02 434.975-435.025
SRMSAT 26 Jun 15:49:36 15:52:15 13° 169° (S) 15:54:54 437.500
JUGNU 26 Jun 15:50:12 15:53:44 16° 185° (S) 15:57:16 437.505
UKube-1 26 Jun 15:51:27 15:54:14 17° 293° (WNW) 15:57:01 .
Gurwin Techsat 1B 26 Jun 15:53:20 15:55:33 13° 269° (W) 15:57:48 435.225
ITUPSAT 1 26 Jun 15:54:02 15:58:32 40° 99° (E) 16:02:59 437.325
ISS 26 Jun 15:57:22 16:00:39 82° 225° (SW) 16:03:57 437.550
